• In Italy
  • List of Countries
  • For 7 days
  • Water Temperature
  • Satellite Maps
  • Weather Map
  • Weather Widgets
  • user-avatar
    Login

    Hourly Weather Belmopan

    Today, 18 October, Wednesday

    Time Temperature Precipitation Wind Pressure Humidity
    00:00 +23°C° 0 mm 0 mps 752 mmHg 99%
    01:00 +23°C° 0 mm 0 mps 752 mmHg 99%
    02:00 +23°C° 0 mm 0 mps 752 mmHg 99%
    03:00 +23°C° 0 mm 0 mps 752 mmHg 99%
    04:00 +24°C° 0 mm 1 mps 752 mmHg 99%
    05:00 +24°C° 0 mm 1 mps 752 mmHg 99%
    06:00 +24°C° 0 mm 1 mps 752 mmHg 99%
    07:00 +26°C° 0.1 mm 1 mps 753 mmHg 91%
    08:00 +28°C° 0.1 mm 1 mps 753 mmHg 84%
    09:00 +30°C° 0.1 mm 1 mps 754 mmHg 76%
    10:00 +31°C° 0.3 mm 1 mps 753 mmHg 71%
    11:00 +33°C° 0.3 mm 1 mps 753 mmHg 66%
    12:00 +32°C° 0.3 mm 0 mps 753 mmHg 61%
    13:00 +34°C° 0.5 mm 1 mps 752 mmHg 62%
    14:00 +33°C° 0.5 mm 1 mps 751 mmHg 63%
    15:00 +33°C° 0.5 mm 1 mps 751 mmHg 64%
    16:00 +31°C° 0.4 mm 1 mps 751 mmHg 71%
    17:00 +29°C° 0.4 mm 1 mps 751 mmHg 79%
    18:00 +28°C° 0.4 mm 1 mps 751 mmHg 87%
    19:00 +27°C° 0.2 mm 1 mps 752 mmHg 89%
    20:00 +25°C° 0.2 mm 0 mps 752 mmHg 92%
    21:00 +24°C° 0.2 mm 0 mps 753 mmHg 94%
    22:00 +24°C° 0.1 mm 0 mps 753 mmHg 95%
    23:00 +24°C° 0.1 mm 0 mps 753 mmHg 96%

    Tomorrow, 19 October, Thursday

    Time Temperature Precipitation Wind Pressure Humidity
    00:00 +23°C° 0.1 mm 0 mps 752 mmHg 96%
    01:00 +23°C° 0.1 mm 0 mps 752 mmHg 97%
    02:00 +23°C° 0.1 mm 0 mps 752 mmHg 97%
    03:00 +23°C° 0.1 mm 0 mps 751 mmHg 97%
    04:00 +23°C° 0.1 mm 0 mps 751 mmHg 98%
    05:00 +23°C° 0.1 mm 0 mps 752 mmHg 98%
    06:00 +23°C° 0.1 mm 0 mps 752 mmHg 98%
    07:00 +25°C° 0.1 mm 0 mps 752 mmHg 90%
    08:00 +27°C° 0.1 mm 0 mps 753 mmHg 82%
    09:00 +29°C° 0.1 mm 0 mps 753 mmHg 73%
    10:00 +31°C° 1.3 mm 1 mps 753 mmHg 77%
    11:00 +31°C° 1.3 mm 1 mps 752 mmHg 81%
    12:00 +30°C° 1.3 mm 1 mps 752 mmHg 86%
    13:00 +30°C° 1.3 mm 1 mps 751 mmHg 86%
    14:00 +30°C° 1.3 mm 1 mps 751 mmHg 86%
    15:00 +30°C° 1.3 mm 1 mps 750 mmHg 86%
    16:00 +29°C° 0.1 mm 1 mps 750 mmHg 88%
    17:00 +26°C° 0.1 mm 0 mps 750 mmHg 91%
    18:00 +25°C° 0.1 mm 0 mps 751 mmHg 93%
    19:00 +25°C° 0.4 mm 0 mps 751 mmHg 94%
    20:00 +24°C° 0.4 mm 0 mps 752 mmHg 95%
    21:00 +24°C° 0.4 mm 0 mps 753 mmHg 96%
    22:00 +24°C° 0.1 mm 0 mps 752 mmHg 97%
    23:00 +24°C° 0.1 mm 0 mps 752 mmHg 97%

    Day after tomorrow, 20 October, Friday

    Time Temperature Precipitation Wind Pressure Humidity
    00:00 +23°C° 0.1 mm 0 mps 752 mmHg 98%
    01:00 +23°C° 0.2 mm 0 mps 752 mmHg 98%
    02:00 +23°C° 0.2 mm 0 mps 751 mmHg 98%
    03:00 +23°C° 0.2 mm 0 mps 751 mmHg 99%
    04:00 +23°C° 0.9 mm 0 mps 751 mmHg 99%
    05:00 +23°C° 0.9 mm 0 mps 751 mmHg 99%
    06:00 +23°C° 0.9 mm 0 mps 752 mmHg 99%
    07:00 +24°C° 0.6 mm 0 mps 752 mmHg 97%
    08:00 +25°C° 0.6 mm 0 mps 753 mmHg 95%
    09:00 +26°C° 0.6 mm 0 mps 753 mmHg 92%
    10:00 +26°C° 0.7 mm 0 mps 753 mmHg 90%
    11:00 +27°C° 0.7 mm 0 mps 752 mmHg 88%
    12:00 +30°C° 0.7 mm 1 mps 752 mmHg 86%
    13:00 +30°C° 0.1 mm 1 mps 751 mmHg 83%
    14:00 +30°C° 0.1 mm 1 mps 750 mmHg 79%
    15:00 +31°C° 0.1 mm 1 mps 749 mmHg 76%
    16:00 +30°C° 0 mm 1 mps 750 mmHg 81%
    17:00 +29°C° 0 mm 1 mps 750 mmHg 86%
    18:00 +27°C° 0 mm 1 mps 750 mmHg 91%
    19:00 +27°C° 0.1 mm 1 mps 751 mmHg 93%
    20:00 +24°C° 0.1 mm 0 mps 751 mmHg 95%
    21:00 +24°C° 0.1 mm 0 mps 752 mmHg 97%
    22:00 +24°C° 0 mm 0 mps 752 mmHg 97%
    23:00 +24°C° 0 mm 0 mps 752 mmHg 98%

    21 October, Saturday

    Time Temperature Precipitation Wind Pressure Humidity
    00:00 +23°C° 0 mm 0 mps 752 mmHg 98%
    01:00 +23°C° 0.3 mm 0 mps 751 mmHg 98%
    02:00 +23°C° 0.3 mm 0 mps 751 mmHg 99%
    03:00 +23°C° 0.3 mm 0 mps 750 mmHg 99%
    04:00 +23°C° 0.1 mm 0 mps 751 mmHg 99%
    05:00 +23°C° 0.1 mm 0 mps 751 mmHg 99%
    06:00 +23°C° 0.1 mm 0 mps 751 mmHg 99%
    07:00 +25°C° 0.5 mm 0 mps 752 mmHg 95%
    08:00 +26°C° 0.5 mm 0 mps 752 mmHg 91%
    09:00 +27°C° 0.5 mm 0 mps 753 mmHg 87%
    10:00 +27°C° 1.2 mm 0 mps 752 mmHg 89%
    11:00 +29°C° 1.2 mm 1 mps 752 mmHg 91%
    12:00 +29°C° 1.2 mm 1 mps 751 mmHg 93%
    13:00 +29°C° 0.5 mm 1 mps 751 mmHg 92%
    14:00 +29°C° 0.5 mm 1 mps 750 mmHg 90%
    15:00 +29°C° 0.5 mm 1 mps 750 mmHg 88%
    16:00 +29°C° 0.1 mm 1 mps 750 mmHg 91%
    17:00 +28°C° 0.1 mm 1 mps 751 mmHg 93%
    18:00 +25°C° 0.1 mm 0 mps 751 mmHg 95%
    19:00 +25°C° 0.3 mm 0 mps 751 mmHg 96%
    20:00 +24°C° 0.3 mm 0 mps 752 mmHg 98%
    21:00 +24°C° 0.3 mm 0 mps 752 mmHg 99%
    22:00 +24°C° 0.7 mm 0 mps 752 mmHg 99%
    23:00 +24°C° 0.7 mm 0 mps 752 mmHg 99%

    22 October, Sunday

    Time Temperature Precipitation Wind Pressure Humidity
    00:00 +24°C° 0.7 mm 0 mps 752 mmHg 99%
    01:00 +24°C° 1.6 mm 0 mps 751 mmHg 99%
    02:00 +24°C° 1.6 mm 0 mps 751 mmHg 99%
    03:00 +24°C° 1.6 mm 0 mps 751 mmHg 99%
    04:00 +24°C° 0.5 mm 0 mps 751 mmHg 99%
    05:00 +24°C° 0.5 mm 0 mps 751 mmHg 99%
    06:00 +24°C° 0.5 mm 0 mps 752 mmHg 99%
    07:00 +24°C° 1 mm 0 mps 752 mmHg 99%
    08:00 +24°C° 1 mm 0 mps 753 mmHg 98%
    09:00 +25°C° 1 mm 0 mps 753 mmHg 98%
    10:00 +27°C° 2 mm 1 mps 753 mmHg 97%
    11:00 +27°C° 2 mm 1 mps 752 mmHg 97%
    12:00 +27°C° 2 mm 2 mps 752 mmHg 96%
    13:00 +27°C° 1.1 mm 2 mps 752 mmHg 97%
    14:00 +27°C° 1.1 mm 2 mps 751 mmHg 97%
    15:00 +27°C° 1.1 mm 2 mps 751 mmHg 97%
    16:00 +27°C° 0.3 mm 1 mps 751 mmHg 97%
    17:00 +26°C° 0.3 mm 1 mps 751 mmHg 97%
    18:00 +26°C° 0.3 mm 1 mps 752 mmHg 98%
    19:00 +26°C° 0.2 mm 1 mps 752 mmHg 98%
    20:00 +26°C° 0.2 mm 1 mps 752 mmHg 98%
    21:00 +26°C° 0.2 mm 1 mps 753 mmHg 98%
    22:00 +26°C° 0.3 mm 1 mps 753 mmHg 98%
    23:00 +26°C° 0.3 mm 1 mps 752 mmHg 98%

    23 October, Monday

    Time Temperature Precipitation Wind Pressure Humidity
    00:00 +26°C° 0.3 mm 1 mps 752 mmHg 99%
    01:00 +25°C° 0.3 mm 1 mps 752 mmHg 99%
    02:00 +25°C° 0.3 mm 1 mps 752 mmHg 99%
    03:00 +25°C° 0.3 mm 1 mps 751 mmHg 99%
    04:00 +25°C° 0.4 mm 1 mps 752 mmHg 99%
    05:00 +23°C° 0.4 mm 0 mps 752 mmHg 99%
    06:00 +24°C° 0.4 mm 0 mps 753 mmHg 99%
    07:00 +24°C° 0.4 mm 0 mps 753 mmHg 98%
    08:00 +27°C° 0.4 mm 1 mps 753 mmHg 97%
    09:00 +27°C° 0.4 mm 1 mps 754 mmHg 96%
    10:00 +28°C° 0.4 mm 1 mps 753 mmHg 94%
    11:00 +28°C° 0.4 mm 1 mps 753 mmHg 92%
    12:00 +29°C° 0.4 mm 1 mps 752 mmHg 91%
    13:00 +29°C° 0.5 mm 1 mps 752 mmHg 91%
    14:00 +29°C° 0.5 mm 1 mps 751 mmHg 91%
    15:00 +29°C° 0.5 mm 1 mps 750 mmHg 92%
    16:00 +28°C° 0.3 mm 1 mps 751 mmHg 93%
    17:00 +25°C° 0.3 mm 0 mps 751 mmHg 95%
    18:00 +24°C° 0.3 mm 0 mps 751 mmHg 97%
    19:00 +24°C° 0 mm 0 mps 752 mmHg 97%
    20:00 +24°C° 0 mm 0 mps 752 mmHg 97%
    21:00 +24°C° 0 mm 0 mps 753 mmHg 98%
    22:00 +24°C° 0.1 mm 0 mps 753 mmHg 98%
    23:00 +23°C° 0.1 mm 0 mps 752 mmHg 98%
    Show more